STARLINK-1882, 46784

Orbit data source: Space-Track

STARLINK-1882, 46784 is a payload satellite owned by SpaceX/Seattle (US) in LEO that was launched on Sat, 24 Oct 2020 UTC via an FALCON 9 launch vehicle from the Air Force Eastern Test Range (AFETR). Payload-class satellites include a variety of spacecraft equipped with specific instruments for various scientific and technological missions. These include communications satellites like Starlink; space stations such as the ISS; scientific satellites like the Hubble; Earth observation satellites from companies like Planet Labs, Umbra, and HawkEye 360; GPS; miniature CubeSats for education and research; and military/defense satellites.

Loading next visibility...
Identifier
46784, 2020-074AX
Orbit
LEO
Country
Flag of USUS
Related business
Manufacturer
SpaceX/Seattle
Mission
Partially operational Commercial Communications
Bus & Motor
STARLINK, Unknown motor
Mass
260 kg wet, ~248 kg dry
Launch date (UTC)
2020-10-24 (5 years ago)
Launch vehicle
FALCON 9
Launch site
Air Force Eastern Test Range (AFETR)
Object type
Payload
Rocket body
Debris
Shape & HBR
Box + 1 Pan, 10.1 m
Radar Cross Section
13.562 m², Large (>1 m²)

Expand to show TLE details & history
Last TLE update: 14 hours ago

TLE from 14 hours ago
0 STARLINK-1882
1 46784U 20074AX  25349.33335648  .01892775  00000-0  45293-1 0  9993
2 46784  53.0600 319.5657 0001223  74.3092 166.8844 15.37535052  5866
Epoch: 2025-12-15T08:00Z
TLE epoch observation values (Epoch: 2025-12-15T08:00:01.999Z)
Latitude
-44.65025°
Longitude
-17.05699°
Altitude
469.287 km
Speed
7.631 km/s
True Right ascension
12h 28m 44s
True Declination
-44° 28' 16"
Sunlit
Object was in daylight at epoch
Visualization orbit readout
Latitude
Unknown
Longitude
Unknown
Altitude
Unknown
Speed
Unknown
Apparent Right ascension
Unknown
Apparent Declination
Unknown
Sunlit
N/A
Visualization observer readout
Local Sidereal Time
20:17:18
Azimuth
Unknown
Elevation
Unknown
Doppler factor
Unknown
Orbital elements
Apogee altitude
454.51 km
Perigee altitude
452.839 km
Semi-major axis
6,831.811 km
Eccentricity
0.00012
Inclination
53.06°
RAAN
319.5657°
Arg. of periapsis
74.3092°
True anomaly
166.88758°
Mean anomaly
166.8844°
Eccentric anomaly
166.88599°
Mean motion
3.84361 °/min
Orbital period
93.66 mins
BSTAR
0.045293
Loading maneuver chart data...
Computing Atmospheric mass density...
Loading historical data...
Loading historical data...
Loading historical data...
Loading historical data...
Loading historical data...
Loading historical data...
Loading historical data...

Documentation

Showing up to 5 results
|